User: anonymous   Login
Location: Sigmaringen
(48.0900°N, 9.2120°E)
Time: 14:02:28
(UTC+01:00)
Language:

ISS - Orbit

View from above orbital plane
View from above orbital plane
View from above satellite
View from above satellite

Ground track
Ground track

The orbit data is extracted from the following two-line orbital elements,

1 25544U 98067A   17328.53108418  .00016717  00000-0  10270-3 0  9020
2 25544  51.6384 318.9869 0003876 145.5281 214.6123 15.54216522  6685
Epoch (UTC): 24 November 2017 12:44:45
Eccentricity: 0.0003876
inclination: 51.6384°
perigee height: 402 km
apogee height: 407 km
right ascension of ascending node: 318.9869°
argument of perigee: 145.5281°
revolutions per day: 15.54216522
mean anomaly at epoch: 214.6123°
orbit number at epoch: 668

The dashed part of the orbit path shows where the satellite is in the earth's shadow,  

DLR